Regional Weather Roundup
Issued by NWS

Home | Current Version | Previous Version | Text Only | Print | Product List | Glossary Off
Versions: 1 2 3 4 5 6 7 8 9 10 11 12 13 14 15 16 17 18 19 20 21 22 23 24 25 26 27 28 29 30 31 32 33 34 35 36 37 38 39 40 41 42 43 44 45 46 47 48 49 50

000
ASUS43 KBIS 281810
RWRND

NORTH DAKOTA REGIONAL WEATHER ROUNDUP
NATIONAL WEATHER SERVICE BISMARCK ND
100 PM CDT MON JUL 28 2014

NOTE: "FAIR" INDICATES FEW OR NO CLOUDS BELOW 12,000 FEET WITH NO
SIGNIFICANT WEATHER AND/OR OBSTRUCTIONS TO VISIBILITY.


NDZ001>003-009>011-017-281900-
NORTHWEST NORTH DAKOTA

CITY           SKY/WX    TMP DP  RH WIND       PRES   REMARKS
WILLISTON      SUNNY     77  52  41 VRB3      30.29F
6HR MIN TEMP:  53; 6HR MAX TEMP:  78;

MINOT          SUNNY     72  53  51 N3        30.30F
MINOT AFB      MOSUNNY   71  55  56 VRB2      30.29F
$$

NDZ018>021-031>035-040>046-281900-
SOUTHWEST NORTH DAKOTA

CITY           SKY/WX    TMP DP  RH WIND       PRES   REMARKS
BISMARCK       PTSUNNY   71  51  49 W5        30.32F
6HR MIN TEMP:  44; 6HR MAX TEMP:  72;

DICKINSON      MOSUNNY   74  53  48 SE6       30.31F
GARRISON         N/A     72  53  51 N3        30.31F
6HR MIN TEMP:  49; 6HR MAX TEMP:  72;

HETTINGER ARPT MOSUNNY   73  52  47 VRB5      30.33F
$$

NDZ004>008-012>016-024-026-027-054-281900-
NORTHEAST NORTH DAKOTA

CITY           SKY/WX    TMP DP  RH WIND       PRES   REMARKS
GRAND FORKS    MOSUNNY   71  54  54 N8        30.25F
GRND FRKS AFB  MOSUNNY   71  56  59 NW12      30.27F
DEVILS LAKE    PTSUNNY   70  52  52 NW8       30.28F
$$

NDZ022-023-025-028>030-036>039-047>053-281900-
SOUTHEAST NORTH DAKOTA

CITY           SKY/WX    TMP DP  RH WIND       PRES   REMARKS
FARGO          PTSUNNY   72  54  53 NW14      30.25F
6HR MIN TEMP:  60; 6HR MAX TEMP:  73;

JAMESTOWN      CLOUDY    68  50  52 N8        30.29F
$$



USA.gov is the U.S. government's official web portal to all federal, state and local government web resources and services.